Temperature
16 17 17 16 16 15 15 15 15 16 17 17 16 15 15 15 14 13 12 11 10 10 9 8 8 7 7 7 7 6 6 6 5 5 5 4 4 4 3 3 3 2 2 2
15 16 16 15 16 16 15 15 15 15 16 17 17 16 15 14 13 12 11 10 10 9 8 8 7 7 7 6 6 6 5 5 5 4 4 4 3 3 3 2 2 2 1 1
14 15 14 13 14 15 15 15 15 15 15 16 15 14 14 13 13 12 10 9 9 8 8 7 7 7 6 6 5 5 5 5 4 4 3 3 3 2 2 2 1 1 0 -0
13 13 11 14 16 16 16 16 15 15 15 14 14 13 13 13 12 11 10 9 8 7 7 7 6 6 6 5 5 5 4 4 3 3 3 2 2 2 1 1 0 0 -0 -1
11 11 12 15 15 14 14 14 15 15 15 13 12 11 11 11 11 10 9 8 7 7 7 6 6 5 5 5 4 4 4 3 3 2 2 2 1 1 1 0 -0 -1 -1 -1
11 11 11 14 13 14 14 12 14 14 13 10 10 8 8 10 9 9 8 7 7 6 6 6 5 5 4 4 4 3 3 3 2 2 2 1 1 0 -0 -0 -1 -1 -2 -2
10 10 11 13 12 13 12 12 12 12 12 10 9 9 9 9 8 8 7 7 6 6 5 5 4 4 4 4 3 3 2 2 2 2 1 1 0 -0 -1 -1 -2 -2 -2 -3
10 10 10 10 11 11 11 11 11 11 11 10 9 9 8 7 7 6 6 6 5 5 5 4 4 4 3 3 3 2 2 2 1 1 0 -0 -1 -1 -1 -2 -2 -3 -3 -3
12 11 12 12 11 11 11 11 11 10 10 9 8 7 7 6 6 6 5 5 5 4 4 4 4 3 3 2 2 2 1 1 1 0 -0 -1 -1 -2 -2 -2 -3 -3 -4 -4
12 11 11 11 11 11 10 10 10 10 9 9 8 7 6 6 5 5 5 4 4 4 4 3 3 3 2 2 1 1 0 0 -0 -1 -1 -1 -2 -2 -3 -3 -4 -4 -5 -5
11 11 10 10 10 10 9 9 9 8 8 8 7 6 6 5 5 4 4 4 3 3 3 3 2 2 2 1 1 0 -0 -1 -1 -1 -2 -2 -2 -3 -3 -4 -4 -5 -5 -6
10 10 9 9 10 9 8 8 8 7 7 6 6 6 5 5 4 4 3 3 3 3 2 2 2 1 1 1 -0 -1 -1 -1 -1 -2 -2 -3 -3 -3 -4 -4 -5 -5 -6 -6
10 10 10 9 9 8 7 7 6 6 6 6 5 5 4 4 3 3 3 3 2 2 2 1 1 1 1 -0 -1 -1 -2 -2 -2 -3 -3 -4 -4 -4 -5 -5 -5 -6 -6 -6
8 8 7 7 7 7 6 6 6 6 5 5 4 4 4 3 3 3 2 2 2 1 1 1 0 0 -0 -1 -1 -2 -2 -3 -3 -3 -4 -4 -5 -5 -6 -6 -6 -6 -6 -7
7 7 7 6 6 5 5 5 5 4 4 4 3 3 3 3 2 2 2 2 1 1 1 0 -0 -0 -1 -1 -2 -3 -3 -3 -4 -4 -5 -5 -5 -6 -6 -6 -7 -7 -7 -7
5 5 5 5 4 4 4 4 4 3 3 3 3 2 2 2 2 2 1 1 0 0 -0 -0 -1 -1 -2 -2 -3 -3 -4 -4 -5 -5 -5 -6 -6 -6 -7 -7 -7 -7 -7 -8
4 4 4 3 3 3 3 3 3 3 2 2 2 2 2 1 1 1 1 0 -0 -0 -0 -1 -1 -2 -2 -3 -4 -4 -4 -5 -5 -6 -6 -6 -7 -7 -7 -7 -7 -8 -8 -8
4 4 4 4 3 3 2 2 2 2 2 2 1 1 1 1 0 0 -0 -0 -1 -1 -1 -1 -2 -3 -3 -3 -4 -5 -5 -6 -6 -6 -7 -7 -7 -7 -7 -7 -8 -8 -8 -8
3 3 3 3 2 2 2 2 2 1 1 1 1 1 0 0 -0 -1 -1 -1 -1 -1 -1 -2 -3 -3 -4 -4 -5 -6 -6 -6 -7 -7 -7 -7 -7 -7 -7 -8 -8 -8 -9 -9
2 2 2 2 2 2 1 1 1 1 1 0 0 -0 -0 -0 -1 -1 -2 -2 -2 -2 -3 -4 -4 -4 -5 -5 -6 -6 -7 -7 -7 -7 -7 -8 -8 -8 -8 -8 -8 -9 -9 -9
1 1 1 1 1 1 1 1 0 0 -0 -0 -1 -1 -1 -1 -2 -2 -2 -3 -2 -3 -4 -4 -5 -5 -5 -6 -7 -7 -7 -7 -8 -8 -8 -8 -8 -8 -8 -9 -9 -9 -10 -10
1 1 1 1 1 0 0 -0 -0 -1 -1 -1 -1 -1 -2 -2 -2 -3 -3 -3 -4 -4 -5 -5 -6 -6 -6 -7 -7 -7 -8 -8 -8 -8 -9 -9 -9 -9 -9 -9 -10 -10 -10 -10
0 0 0 0 -0 -0 -0 -1 -1 -1 -1 -2 -2 -2 -3 -3 -3 -4 -4 -4 -5 -5 -6 -6 -6 -7 -7 -8 -8 -8 -9 -9 -9 -9 -10 -10 -10 -10 -10 -10 -10 -11 -11 -11
-0 -0 -0 -1 -1 -1 -1 -1 -2 -2 -2 -2 -2 -3 -3 -4 -4 -4 -5 -5 -6 -7 -7 -7 -8 -8 -8 -9 -9 -9 -9 -10 -10 -10 -10 -10 -10 -11 -11 -11 -11 -11 -11 -12
-1 -1 -1 -1 -1 -2 -2 -2 -2 -2 -3 -3 -3 -4 -4 -5 -5 -6 -6 -7 -7 -8 -8 -8 -9 -9 -9 -10 -10 -10 -10 -11 -11 -11 -11 -11 -11 -12 -12 -12 -12 -12 -12 -12
-1 -2 -2 -2 -2 -2 -3 -3 -3 -4 -4 -4 -4 -5 -6 -6 -7 -7 -7 -8 -8 -9 -9 -9 -9 -10 -10 -10 -11 -11 -11 -11 -12 -12 -12 -12 -12 -12 -12 -13 -13 -13 -13 -12
-2 -2 -2 -3 -3 -3 -4 -4 -4 -5 -5 -6 -6 -6 -7 -7 -8 -8 -9 -9 -9 -10 -10 -10 -10 -11 -11 -11 -12 -12 -12 -12 -12 -12 -12 -13 -13 -13 -13 -13 -13 -13 -13 -13
Wind_Speed
7 0 2 6 9 12 12 12 9 9 10 6 5 7 8 9 10 10 10 9 9 8 7 7 6 5 5 3 2 1 1 3 4 4 5 6 6 7 8 9 10 10 11 11
6 3 3 6 7 10 12 12 13 13 14 6 1 5 7 8 10 11 10 10 9 8 8 7 6 5 4 2 2 1 3 4 5 5 6 6 7 8 9 9 10 10 11 11
4 4 1 7 10 12 11 10 9 12 10 1 2 5 6 7 9 10 10 10 9 8 7 6 6 4 3 1 1 2 4 5 6 6 6 7 8 9 9 10 10 11 10 11
3 3 8 7 2 6 10 11 11 9 5 4 5 5 4 5 8 10 10 9 8 7 7 5 4 3 2 1 2 4 5 6 6 6 7 8 8 9 10 9 10 10 11 11
4 5 8 6 5 5 6 6 6 6 2 7 9 6 3 4 7 9 9 9 8 7 6 5 3 3 1 2 4 5 6 6 6 6 7 8 9 10 10 9 10 10 10 11
4 5 7 3 2 3 4 5 2 3 5 9 8 4 4 7 10 10 10 8 7 5 4 3 2 2 1 4 5 6 7 6 6 7 8 9 10 10 9 9 11 11 11 10
7 7 7 3 5 5 5 5 2 3 6 8 6 4 7 10 10 9 9 8 6 5 3 2 1 1 3 5 6 7 7 7 7 8 9 10 10 9 10 10 11 10 11 10
7 8 9 7 7 7 4 4 3 4 6 8 8 9 9 9 9 8 7 6 5 3 2 1 1 2 5 7 7 7 7 8 8 9 9 9 10 10 10 10 10 11 11 12
8 7 2 8 6 4 4 5 4 5 7 10 9 8 8 8 7 6 6 5 3 2 2 2 3 4 6 7 7 7 8 9 9 9 9 9 9 10 9 9 9 10 10 12
2 4 6 6 5 4 4 5 6 7 9 9 9 9 8 7 6 5 4 3 2 1 3 4 5 5 6 7 7 8 9 9 9 9 9 9 8 8 8 8 9 10 11 13
4 3 6 5 5 6 6 7 8 8 8 8 9 8 7 6 5 4 3 2 2 2 4 6 6 7 7 7 7 8 9 9 9 9 9 9 9 8 10 9 11 13 12 11
4 3 5 4 6 7 8 7 9 9 7 7 7 7 6 5 4 3 2 1 2 4 5 6 7 8 8 8 8 9 9 9 8 8 8 8 10 11 14 16 23 24 24 23
4 4 5 6 6 7 7 7 8 8 8 8 6 6 5 4 3 2 1 2 3 5 6 7 8 9 9 8 8 9 9 9 8 8 9 9 9 11 13 15 20 22 24 26
6 6 5 5 5 7 8 8 8 8 7 7 6 5 4 3 1 1 2 4 4 6 7 8 8 9 9 8 8 9 9 11 11 9 9 9 9 10 11 14 15 12 15 23
5 3 5 7 8 8 8 8 8 7 7 6 5 4 3 2 2 3 4 5 6 7 8 8 9 10 9 9 9 9 9 8 9 9 9 10 10 10 11 13 14 14 12 14
7 6 8 9 9 8 8 8 7 6 6 5 4 3 2 1 3 5 6 6 7 8 8 9 10 10 10 9 9 9 9 16 16 11 10 10 10 11 12 12 13 13 13 12
9 8 8 9 9 8 7 6 6 5 5 4 3 2 0 2 5 6 7 6 6 8 9 9 10 10 9 9 9 8 8 11 18 14 10 11 11 12 12 12 13 13 13 15
6 6 7 8 8 8 7 6 6 5 4 2 1 0 3 4 6 7 7 8 8 10 10 10 10 9 8 8 8 8 9 9 9 11 11 11 13 12 12 12 13 15 13 14
8 9 9 9 8 7 6 6 5 3 2 1 1 3 4 6 7 8 8 8 10 12 11 9 14 11 10 10 13 9 9 11 12 12 11 17 16 12 11 12 13 13 13 13
10 10 10 9 8 7 5 4 3 1 0 0 2 4 6 8 8 8 8 9 9 10 10 12 12 10 9 10 15 9 10 11 13 13 13 12 13 13 12 12 12 12 12 12
9 9 9 8 6 5 4 2 1 1 2 2 4 7 8 9 9 8 9 11 11 10 11 16 10 8 8 12 17 10 10 12 13 13 13 13 13 13 12 12 12 13 12 12
7 7 7 6 4 3 1 1 1 3 4 5 7 7 8 9 10 10 10 11 11 14 11 8 7 12 16 20 11 10 11 13 13 12 12 12 12 13 12 12 12 12 12 11
6 6 5 4 2 1 2 2 4 5 6 7 8 8 9 9 8 9 12 9 8 15 12 9 15 23 26 16 10 10 11 12 12 12 12 12 12 12 12 13 12 12 11 12
5 4 3 2 1 2 4 6 6 6 7 8 8 9 10 9 9 8 9 15 17 20 12 16 24 26 25 12 9 9 10 11 11 11 12 12 11 11 11 12 12 11 12 13
3 2 1 1 3 4 5 6 6 7 8 7 8 9 8 7 9 9 8 10 17 20 12 16 24 25 16 9 9 9 9 11 13 13 11 11 11 11 12 12 12 12 12 13
1 1 2 3 4 4 4 4 5 6 6 7 7 7 6 6 8 9 9 11 13 19 14 10 11 14 9 9 9 10 10 12 13 11 10 12 12 12 12 12 13 12 12 13
1 2 3 4 4 4 4 4 5 6 6 8 10 8 8 8 9 10 11 11 11 10 10 9 9 9 9 9 10 10 10 10 10 10 10 11 11 11 12 13 12 12 12 13
Wind_Direction
262 54 149 206 203 201 213 228 239 252 264 262 213 188 171 159 150 144 144 145 147 147 141 137 134 129 124 126 137 159 267 279 277 282 290 293 293 293 291 290 288 285 284 283
261 211 225 258 242 220 220 232 244 262 270 288 89 135 146 154 155 155 152 150 145 139 135 137 135 133 134 161 185 208 265 273 276 281 283 284 286 288 288 287 285 283 282 281
248 218 204 248 228 227 227 223 223 244 257 339 137 149 155 156 154 152 148 145 142 137 134 131 129 131 154 187 228 260 266 271 273 275 279 281 283 287 286 285 284 284 283 283
231 195 233 235 191 214 229 241 231 237 232 153 139 112 95 129 142 141 139 138 135 131 126 123 124 139 158 220 264 267 270 273 273 275 278 280 282 282 282 282 284 285 287 286
199 228 262 247 200 175 199 256 237 237 201 117 103 85 70 87 117 125 123 121 120 121 125 131 146 160 178 260 271 273 275 276 278 280 282 283 282 282 283 286 288 286 286 288
191 212 236 226 122 108 122 266 278 156 133 130 122 147 190 121 102 102 103 105 110 113 120 140 164 155 226 268 277 278 278 280 284 284 283 283 281 283 285 286 286 287 287 286
210 226 250 172 153 132 174 232 73 100 132 143 155 162 133 117 107 108 110 114 118 126 142 171 174 196 258 270 273 275 280 284 285 282 280 280 281 282 285 286 287 287 289 289
199 223 240 160 157 185 189 137 131 131 135 130 112 106 112 114 117 120 122 129 134 142 177 212 237 253 265 269 272 280 286 285 283 281 282 286 284 284 284 286 290 291 293 294
197 207 163 155 157 129 122 137 141 136 125 127 128 128 125 125 128 131 138 143 145 163 227 262 265 260 266 271 279 284 285 283 282 283 281 281 282 286 288 287 288 291 292 294
216 171 154 147 125 131 132 131 125 124 125 130 134 135 134 135 138 144 147 148 154 197 259 271 275 273 270 278 283 284 283 284 284 285 285 284 283 282 285 286 287 290 292 295
232 159 133 180 179 157 138 122 116 113 117 126 130 135 139 143 150 152 149 154 178 235 262 272 281 283 283 284 287 285 282 282 283 283 285 287 283 279 285 278 283 293 292 292
207 179 171 176 165 148 143 141 134 126 119 118 127 133 134 139 140 139 151 180 239 260 270 279 285 285 285 284 284 283 285 284 284 284 285 285 290 292 285 285 294 295 295 295
114 76 88 106 111 124 135 131 128 129 131 126 120 123 126 127 126 128 180 253 263 269 274 280 285 285 285 286 286 284 283 285 286 284 286 287 288 292 298 298 293 293 295 298
116 110 117 131 134 125 122 122 119 115 118 120 119 116 114 112 112 221 262 267 273 279 280 281 282 283 288 295 295 290 287 290 291 286 285 286 286 287 291 296 301 297 294 297
164 151 144 132 125 121 122 124 124 124 122 116 115 118 124 148 234 261 271 279 281 278 276 279 283 286 292 294 292 288 289 288 286 284 283 285 286 287 288 289 292 296 297 300
143 125 128 135 138 136 136 136 135 134 130 125 124 131 142 207 263 273 275 273 274 277 279 282 282 283 286 285 285 285 285 289 293 290 287 287 287 288 289 289 291 293 296 299
146 155 157 153 148 143 138 133 129 128 123 124 125 119 228 278 278 276 277 280 281 277 277 277 278 280 281 283 286 286 284 288 293 292 286 286 287 287 287 288 291 292 293 296
144 137 137 138 136 130 122 112 107 107 112 115 110 246 270 273 278 283 288 290 287 282 278 274 276 281 282 285 286 285 284 284 284 285 286 286 287 285 286 288 290 291 293 296
104 102 100 102 107 109 108 105 104 106 115 138 227 266 274 276 277 278 282 285 284 286 284 279 288 290 284 283 291 283 282 284 286 286 286 289 291 286 285 286 288 290 293 296
95 94 93 90 90 98 103 105 106 109 137 223 271 277 279 277 278 282 284 279 272 271 276 283 286 280 279 282 291 283 281 283 286 288 288 286 287 287 286 288 290 291 293 294
102 101 101 100 96 94 97 99 97 283 283 274 268 269 273 277 279 280 281 284 280 273 279 289 289 283 286 289 294 289 288 289 289 290 289 289 290 290 290 290 292 293 294 296
105 104 101 99 96 87 76 60 297 281 281 278 273 272 275 279 279 276 267 271 282 287 290 283 281 290 298 299 294 292 290 290 291 292 291 291 292 293 293 293 293 294 296 295
98 98 95 90 84 33 323 298 276 269 270 270 272 273 273 274 276 282 288 282 281 291 296 286 293 298 301 302 294 292 292 292 293 293 293 293 292 293 293 293 293 294 295 295
93 91 91 82 45 306 287 280 273 265 263 266 265 264 268 277 278 268 270 289 298 298 295 295 300 302 305 301 293 290 290 291 291 292 293 293 292 293 294 295 296 296 295 295
106 116 173 253 269 265 267 279 286 282 277 272 269 267 264 263 274 285 285 290 297 300 296 298 301 303 303 293 290 288 289 289 291 294 294 296 296 296 295 295 294 295 296 295
138 234 254 254 255 265 275 280 279 279 283 287 286 283 282 282 285 291 293 293 292 296 298 294 295 297 293 289 288 289 289 294 295 293 291 292 292 293 294 294 293 294 295 295
264 270 276 282 278 268 266 270 277 283 286 289 293 293 292 294 293 292 293 294 295 294 293 293 292 291 290 290 290 290 289 289 288 288 290 291 292 293 294 293 295 295 295 295
Height
1464 1463 1465 1468 1470 1473 1477 1477 1480 1473 1469 1465 1464 1466 1467 1470 1474 1477 1481 1485 1488 1492 1495 1497 1499 1501 1502 1502 1502 1502 1501 1500 1498 1496 1494 1492 1489 1486 1482 1479 1475 1471 1467 1463
1466 1463 1465 1468 1466 1467 1470 1470 1470 1468 1466 1459 1460 1462 1465 1468 1471 1475 1478 1482 1486 1490 1492 1494 1496 1498 1499 1499 1498 1498 1496 1495 1493 1491 1489 1486 1483 1480 1476 1472 1468 1464 1460 1455
1472 1464 1468 1473 1464 1463 1462 1460 1462 1466 1461 1459 1460 1462 1464 1466 1469 1472 1476 1480 1484 1487 1490 1492 1493 1494 1495 1495 1495 1493 1492 1490 1488 1486 1483 1481 1477 1473 1469 1465 1461 1457 1453 1448
1470 1471 1481 1461 1450 1450 1453 1453 1453 1454 1454 1456 1459 1461 1464 1465 1468 1471 1475 1479 1482 1485 1487 1489 1490 1491 1491 1491 1490 1489 1487 1485 1483 1481 1478 1475 1471 1467 1463 1458 1454 1450 1445 1441
1472 1474 1466 1452 1449 1450 1453 1452 1448 1450 1451 1455 1457 1461 1465 1466 1468 1470 1474 1478 1481 1483 1485 1486 1487 1487 1487 1487 1486 1485 1483 1481 1478 1476 1472 1468 1464 1460 1456 1451 1447 1442 1438 1433
1468 1473 1471 1452 1448 1446 1450 1456 1448 1447 1451 1455 1458 1466 1466 1466 1468 1470 1473 1476 1479 1481 1482 1483 1484 1484 1484 1483 1482 1480 1478 1476 1473 1470 1466 1462 1458 1454 1449 1445 1439 1435 1429 1425
1466 1468 1458 1447 1447 1449 1460 1455 1449 1449 1450 1454 1457 1461 1462 1464 1467 1470 1473 1475 1477 1479 1480 1480 1480 1480 1479 1478 1477 1475 1473 1470 1467 1464 1460 1456 1451 1447 1443 1437 1432 1427 1421 1417
1459 1463 1458 1445 1447 1449 1448 1447 1448 1449 1451 1454 1457 1459 1461 1464 1467 1469 1471 1473 1475 1476 1477 1477 1477 1476 1475 1474 1472 1470 1467 1464 1461 1457 1453 1449 1445 1440 1435 1430 1424 1419 1413 1407
1443 1445 1438 1439 1441 1442 1444 1446 1447 1449 1451 1453 1456 1459 1462 1464 1466 1468 1470 1471 1472 1473 1474 1474 1473 1472 1471 1469 1467 1464 1461 1457 1454 1450 1446 1442 1438 1432 1428 1423 1417 1411 1405 1399
1435 1436 1436 1438 1439 1441 1443 1444 1446 1448 1450 1452 1455 1458 1461 1463 1465 1467 1468 1469 1470 1470 1470 1470 1469 1468 1466 1464 1461 1458 1454 1450 1447 1442 1438 1434 1430 1426 1421 1416 1410 1404 1398 1392
1433 1433 1435 1437 1438 1439 1441 1443 1444 1447 1449 1451 1454 1456 1459 1461 1463 1464 1466 1466 1467 1467 1466 1466 1465 1463 1461 1458 1455 1451 1447 1443 1439 1435 1431 1426 1422 1418 1413 1409 1405 1399 1392 1386
1431 1430 1432 1433 1435 1437 1439 1441 1443 1445 1448 1450 1453 1455 1457 1459 1461 1462 1463 1463 1464 1463 1462 1461 1459 1457 1455 1452 1449 1444 1440 1436 1432 1427 1423 1418 1413 1408 1404 1401 1396 1391 1386 1381
1426 1428 1429 1431 1434 1436 1438 1440 1442 1444 1447 1449 1451 1453 1455 1457 1458 1459 1460 1460 1460 1459 1458 1456 1453 1451 1448 1445 1442 1438 1433 1428 1424 1419 1415 1410 1405 1399 1393 1388 1385 1381 1377 1372
1425 1427 1429 1431 1433 1435 1437 1439 1441 1444 1446 1448 1450 1452 1453 1455 1456 1457 1457 1456 1455 1454 1452 1450 1447 1444 1442 1438 1434 1430 1426 1421 1416 1412 1407 1402 1398 1393 1387 1380 1374 1368 1366 1363
1423 1425 1427 1428 1431 1433 1435 1438 1440 1442 1444 1446 1448 1450 1451 1452 1453 1453 1453 1452 1450 1448 1446 1443 1440 1437 1435 1431 1426 1422 1417 1413 1408 1404 1399 1395 1390 1385 1380 1374 1368 1362 1356 1353
1421 1423 1425 1427 1429 1432 1434 1436 1439 1441 1443 1445 1447 1448 1449 1450 1450 1449 1448 1447 1445 1442 1440 1437 1433 1430 1427 1422 1418 1413 1409 1405 1401 1396 1391 1387 1382 1377 1372 1367 1362 1356 1350 1345
1418 1421 1423 1426 1428 1431 1433 1436 1438 1440 1442 1444 1445 1446 1446 1446 1445 1444 1443 1442 1439 1436 1433 1430 1426 1422 1419 1415 1410 1405 1401 1396 1392 1388 1383 1379 1374 1369 1365 1360 1354 1349 1344 1340
1416 1419 1421 1424 1427 1430 1433 1435 1437 1439 1441 1442 1443 1443 1442 1442 1440 1439 1437 1435 1432 1429 1426 1423 1418 1414 1410 1407 1402 1397 1393 1388 1384 1379 1375 1371 1366 1362 1357 1352 1347 1341 1336 1332
1415 1418 1421 1424 1427 1430 1432 1434 1436 1438 1439 1439 1439 1439 1438 1437 1435 1433 1431 1428 1424 1420 1417 1414 1410 1406 1402 1398 1394 1389 1385 1380 1376 1371 1367 1362 1358 1353 1349 1344 1339 1334 1329 1324
1416 1419 1422 1424 1427 1430 1432 1433 1435 1436 1436 1436 1436 1434 1433 1432 1430 1427 1423 1420 1417 1413 1409 1405 1402 1398 1394 1390 1386 1381 1377 1372 1368 1363 1359 1354 1349 1345 1340 1336 1331 1326 1322 1317
1417 1420 1422 1425 1427 1429 1431 1432 1433 1433 1433 1432 1431 1429 1427 1425 1423 1420 1415 1411 1408 1406 1402 1398 1394 1390 1386 1382 1378 1373 1369 1364 1360 1355 1350 1346 1341 1336 1332 1328 1323 1319 1314 1310
1418 1421 1423 1425 1427 1428 1429 1430 1430 1429 1429 1427 1426 1424 1421 1418 1415 1412 1408 1405 1400 1397 1394 1389 1386 1382 1378 1374 1369 1365 1360 1356 1351 1346 1342 1337 1333 1328 1324 1320 1315 1311 1307 1302
1419 1421 1423 1425 1426 1426 1427 1427 1426 1425 1424 1422 1420 1418 1415 1411 1408 1404 1399 1396 1393 1389 1385 1381 1377 1373 1370 1365 1360 1356 1351 1347 1342 1338 1334 1329 1325 1321 1316 1312 1307 1303 1299 1294
1420 1421 1422 1423 1423 1423 1423 1422 1421 1420 1418 1416 1414 1411 1408 1404 1400 1397 1393 1388 1385 1381 1376 1372 1368 1364 1361 1356 1351 1347 1342 1338 1334 1329 1325 1321 1317 1313 1308 1304 1300 1295 1291 1287
1419 1420 1420 1421 1420 1419 1419 1417 1416 1414 1412 1409 1406 1404 1401 1397 1393 1388 1384 1380 1376 1372 1367 1363 1359 1355 1351 1346 1342 1338 1334 1330 1326 1321 1317 1313 1309 1304 1300 1296 1292 1287 1283 1279
1417 1418 1418 1417 1417 1415 1414 1412 1410 1408 1405 1401 1398 1395 1392 1389 1385 1380 1376 1371 1367 1363 1358 1354 1350 1346 1341 1337 1333 1329 1325 1321 1317 1313 1309 1305 1300 1296 1292 1288 1284 1279 1275 1271
1415 1415 1414 1413 1412 1411 1409 1407 1404 1401 1398 1395 1390 1387 1383 1379 1375 1371 1366 1362 1357 1353 1349 1345 1340 1336 1332 1328 1324 1320 1316 1312 1308 1304 1300 1296 1292 1288 1284 1280 1275 1271 1267 1262